Location: Aichach
(47.8393°N, 9.5788°E)
Time: 06:48:24
(UTC+00:00)

Daily predictions for brighter satellites

Satellite Brightness Start Highest point End
(mag) Time Altitude Azimuth Time Altitude Azimuth Time Altitude Azimuth
Ariane Rocket 3.1 19:54:54 10° SSE 20:00:00 83° ENE 20:05:08 10° NNW
USA 267 4.2 19:55:38 10° ENE 20:00:40 23° SE 20:05:39 10° S
Cosmos 1954 Rocket 4.3 19:56:28 10° NNW 20:01:42 56° ENE 20:06:50 10° SE
PSLV R/B 4.2 20:02:35 10° NNE 20:06:44 78° WNW 20:10:52 10° SSW
Cosmos 1980 Rocket 4.4 20:04:27 10° N 20:07:37 15° NE 20:10:46 10° ENE
NOSS 2-1 (D) 4.3 20:03:30 10° NNW 20:07:46 55° NE 20:13:43 10° SE
S3M 4.2 20:02:39 10° SSW 20:08:52 77° W 20:15:02 10° N
Cosmos 1953 4.3 20:07:23 10° NNW 20:10:44 27° W 20:14:06 10° SSW
Cosmos 1697 Rocket 4.4 20:06:28 10° N 20:10:54 23° NE 20:15:19 10° E
Meteor 2-10 Rocket 4.1 20:06:42 10° NNW 20:11:39 57° W 20:16:32 10° S
Cosmos 2369 Rocket 4.5 20:07:55 10° NW 20:11:48 19° W 20:15:42 10° SW
SPOT 5 3.3 20:07:41 10° SE 20:11:50 41° ENE 20:15:56 10° N
H-2A R/B 2.7 20:09:00 10° N 20:13:20 61° WNW 20:17:44 10° SSW
Tiangong 2.4 20:13:03 10° WSW 20:15:43 25° S 20:18:23 10° SE
Cosmos 1975 Rocket 3.1 20:11:42 10° S 20:16:10 86° E 20:20:37 10° N
CARTOSAT-1 3.6 20:13:27 10° SSE 20:17:45 87° ENE 20:22:06 10° NNW
IRAS Rocket 4.3 20:14:24 10° NNE 20:20:02 75° ESE 20:25:36 10° SSW
Cosmos 2084 3.2 20:17:22 10° SSW 20:21:08 56° SE 20:24:56 10° NE
Cosmos 1656 4.3 20:15:59 10° NNW 20:21:13 44° NE 20:26:28 10° SE
USA 276 2.3 20:26:17 10° SW 20:29:08 41° SSE 20:32:00 10° E
Spot 2 Rocket 3.6 20:25:51 10° SSE 20:30:53 68° ENE 20:35:59 10° N
ATLAS 2AS CENTAUR R/B 2.8 20:24:29 10° NW 20:31:42 90° SSE 20:37:59 12° SE
Cosmos 1544 Rocket 3.5 20:29:15 10° N 20:33:36 79° E 20:37:55 10° SSE
Meteor 1-24 Rocket 3.6 20:28:23 10° S 20:33:41 88° E 20:39:08 10° NNE
Cosmos 1371 Rocket 4.2 20:30:54 10° SSW 20:36:07 80° WNW 20:41:28 10° NNE
Lacrosse 5 1.9 20:31:11 10° NW 20:36:19 86° SW 20:40:57 13° SE
USA 234 4.0 20:30:03 10° E 20:36:20 51° NNE 20:42:37 10° NW
Cosmos 1452 Rocket 4.2 20:32:11 10° SSE 20:36:53 34° ESE 20:41:36 10° NE
X-37B 0.9 20:36:30 10° SW 20:39:06 35° SSE 20:41:43 10° E
Cosmos 1833 Rocket 3.8 20:36:05 12° SSE 20:40:05 24° ESE 20:44:29 10° NE
Terra 2.1 20:38:02 13° SSE 20:42:15 58° ENE 20:46:57 10° N
Cosmos 2184 Rocket 4.2 20:40:22 10° N 20:46:28 59° ENE 20:51:49 14° SSE
Resurs 01 Rocket 3.7 20:45:31 10° SSW 20:49:08 24° W 20:52:45 10° NW
Cosmos 724 4.2 20:46:19 10° SSW 20:52:04 67° ESE 20:57:50 10° NE
Helios 1A Rocket 3.0 20:51:31 13° S 20:55:06 76° WSW 20:59:13 10° NNW
CZ-4B R/B 3.8 20:53:22 10° NNW 20:55:32 20° WNW 20:57:42 10° WSW
Lacrosse 5 rocket 2.3 20:55:49 10° WNW 20:59:18 33° SW 21:01:56 16° S
Cosmos 1271 Rocket 3.4 20:56:59 10° NNW 21:00:53 54° W 21:04:25 12° S
Cosmos 2082 Rocket 3.9 21:01:01 13° ESE 21:03:05 16° E 21:06:21 10° ENE
NOSS 2-1 (E) 4.2 21:01:42 10° NW 21:06:20 68° SW 21:11:18 17° SSE
ERS-1 Rocket 3.2 21:03:41 13° S 21:08:08 68° WSW 21:13:10 10° NNW
RESURS DK-1 2.7 21:06:19 10° NNW 21:10:25 58° ENE 21:13:07 20° SE
CZ-2C R/B 3.7 21:12:06 10° NNE 21:16:44 83° WNW 21:21:15 10° SSW
ARIANE 5 R/B 2.7 21:18:10 19° S 21:21:20 81° WSW 21:25:48 10° NNW
Cosmos 1741 Rocket 4.0 21:16:51 10° NNW 21:22:13 90° ENE 21:25:51 21° SSE
Cosmos 2344 4.4 21:19:21 10° NW 21:28:02 73° NE 21:38:57 13° SE
SL-8 R/B 3.6 21:24:15 10° W 21:29:05 84° SSW 21:33:28 13° ESE
GP-B 3.9 21:27:39 10° NNE 21:31:47 37° E 21:33:53 23° SE
Cosmos 1455 4.2 21:28:48 10° NW 21:31:53 24° W 21:34:58 10° SW
Cosmos 2074 Rocket 4.4 21:28:47 10° NNW 21:34:59 62° W 21:40:09 15° S
ASTEX 1 3.7 21:35:02 10° NNE 21:39:58 55° E 21:42:46 25° SSE
COSMOS 2406 3.7 21:37:53 22° SSE 21:41:10 43° ESE 21:46:35 10° NE
Cosmos 2369 4.2 21:38:40 10° NNW 21:44:19 55° ENE 21:48:09 20° SE
USA 267 3.2 21:37:50 10° NE 21:44:24 75° SE 21:50:56 10° SW
SL-16 R/B 4.3 21:41:01 10° N 21:45:07 20° NE 21:49:11 10° E
Cosmos 2228 3.6 21:45:27 10° NNW 21:49:34 49° W 21:52:05 21° SSW
Tiangong 3.6 21:50:15 10° SW 21:50:36 11° SW 21:50:36 11° SW
Nadezhda 1 Rocket 4.0 21:47:09 15° SSW 21:52:15 77° W 21:58:21 10° N
Cosmos 1980 Rocket 2.6 21:47:18 10° NNW 21:52:57 57° ENE 21:56:37 22° SE
Cosmos 1606 Rocket 3.7 21:50:22 10° NNW 21:54:41 69° W 21:56:56 27° S
Cosmos 1697 Rocket 2.7 21:49:53 10° NNW 21:55:32 78° WSW 21:58:44 26° SSE
Cosmos 1892 3.3 21:55:58 32° SE 21:56:58 39° E 22:00:30 10° NNE
SJ 16-02 4.0 21:56:31 10° NNE 21:58:09 12° NE 21:59:46 10° ENE
Cosmos 2154 Rocket 4.4 21:53:42 10° NNW 21:59:47 57° W 22:04:14 19° SSW
Cosmos 2084 Rocket 3.7 21:56:44 10° NW 22:00:34 56° NE 22:02:43 25° ESE
Meteor 1-11 4.3 21:57:30 26° SSE 22:00:38 60° E 22:06:08 10° NNE
USA 276 2.4 22:01:47 10° W 22:04:46 62° N 22:07:45 10° ENE
Cosmos 1328 4.1 22:04:05 25° SSW 22:06:18 66° W 22:10:18 10° N
Cosmos 1331 Rocket 4.2 22:04:07 14° SSW 22:08:41 73° WNW 22:14:01 10° NNE
X-37B 2.0 22:11:37 10° W 22:12:57 23° WSW 22:12:57 23° WSW
Cosmos 1408 2.3 22:15:25 47° S 22:16:18 82° E 22:19:46 10° N
Lacrosse 5 3.5 22:15:07 10° WNW 22:18:40 19° WSW 22:20:08 17° SW
USA 234 3.2 22:14:25 20° SE 22:19:08 78° SW 22:25:45 10° NW
Cosmos 1726 Rocket 4.1 22:15:15 10° NNW 22:19:25 49° W 22:21:23 27° SSW
Terra 3.9 22:17:03 10° SW 22:20:23 19° W 22:23:44 10° NW
ATLAS 2AS CENTAUR R/B 4.3 22:16:43 10° WNW 22:21:38 21° WSW 22:25:25 13° SSW
Cosmos 1833 Rocket 3.2 22:18:02 10° SW 22:23:35 60° WNW 22:29:10 10° NNE
Cosmos 2322 Rocket 4.0 22:19:52 10° N 22:24:32 25° NE 22:29:13 10° E
Cosmos 1867 3.7 22:22:36 10° NW 22:28:06 74° NE 22:31:17 26° SE
Cosmos 2278 4.0 22:23:22 10° NNW 22:29:05 64° ENE 22:32:24 25° SE
ATLAS 5 CENTAUR R/B 2.8 22:30:25 20° ESE 22:30:25 20° ESE 22:32:54 10° ENE
SL-8 Rocket 4.0 22:24:05 10° N 22:30:22 82° W 22:33:46 29° S
Cosmos 1812 Rocket 4.5 22:28:24 10° N 22:32:38 40° ENE 22:34:25 27° ESE
ALOS 2 2.7 22:32:46 36° SSE 22:34:27 70° ENE 22:38:51 10° N
Cosmos 1302 Rocket 4.0 22:31:55 25° SSW 22:34:59 85° WNW 22:40:13 10° NNE
Cosmos 2218 Rocket 4.1 22:36:01 10° N 22:42:27 80° W 22:45:53 30° S
Cosmos 2366 rocket 4.1 22:39:53 10° NNW 22:46:12 76° W 22:49:35 30° S
Cosmos 2082 Rocket 2.2 22:42:49 24° SSW 22:46:21 88° WNW 22:52:06 10° NNE
Cosmos 1602 Rocket 3.9 22:45:32 38° SE 22:46:45 50° E 22:50:56 10° NNE
RESURS DK-1 4.4 22:45:25 10° WNW 22:47:57 16° WSW 22:48:58 15° WSW
H-2A R/B 3.4 22:45:34 10° NNE 22:49:48 82° ESE 22:51:09 42° S
Cosmos 2058 Rocket 4.0 22:49:18 10° NNW 22:53:23 38° W 22:55:04 27° SW
Spot 4 4.3 22:52:43 32° SSW 22:54:33 50° W 22:59:14 10° NNW
Cosmos 1825 2.3 22:58:50 45° SW 22:59:47 66° W 23:03:32 10° N
Cosmos 2360 Rocket 3.7 22:59:10 10° NNW 23:04:12 31° NE 23:09:13 10° ESE
ERS-2 2.2 23:01:51 10° NNE 23:05:24 58° ESE 23:05:53 53° SE
Cosmos 968 Rocket 4.3 23:00:43 10° NW 23:05:29 38° WSW 23:07:22 28° SW
Cosmos-2242 3.0 23:02:43 10° N 23:06:58 69° E 23:08:16 42° SSE
SL-8 R/B 4.3 23:06:56 10° W 23:11:19 35° SSW 23:11:22 35° SSW
Cosmos 1626 Rocket 3.8 23:10:22 35° SW 23:11:57 59° WNW 23:16:16 10° N
Cosmos 1869 4.1 23:12:39 10° NNW 23:16:17 39° W 23:17:08 34° SW
Cosmos 1606 2.9 23:13:32 10° N 23:17:21 61° ENE 23:18:18 45° SE
Cosmos 2058 3.7 23:16:21 34° SE 23:17:25 41° E 23:21:22 10° NNE
BREEZE-M DEB (TANK) 4.1 23:14:22 10° WNW 23:18:02 90° N 23:33:54 10° ESE
Cosmos 1934 Rocket 4.5 23:12:58 10° N 23:18:53 52° ENE 23:22:23 24° SE
Cosmos 1825 Rocket 3.9 23:22:58 39° SE 23:24:10 54° E 23:28:24 10° NNE
ADEOS Rocket 3.7 23:20:28 29° SSW 23:24:18 59° W 23:31:52 10° NNW
COSMOS 2406 4.5 23:20:14 10° WSW 23:25:34 37° NW 23:30:55 10° NNE
Cosmos 1633 2.6 23:25:15 53° SW 23:25:49 63° WNW 23:29:16 10° N
USA 267 4.1 23:20:57 10° NE 23:27:15 52° NNW 23:33:32 10° W
SL-16 R/B 2.2 23:24:22 10° NNW 23:30:06 85° ENE 23:33:07 29° SSE
Meteor 2-20 4.5 23:32:16 31° SSW 23:35:23 74° W 23:41:31 10° N
Cosmos 1980 Rocket 3.5 23:31:57 10° NW 23:36:34 26° WSW 23:38:21 22° SW
SJ 16-02 1.4 23:33:04 10° NNW 23:37:32 76° ENE 23:39:13 37° SSE
USA 276 2.4 23:37:40 10° WNW 23:40:39 62° N 23:43:39 10° E
Meteor 2-2 Rocket 4.4 23:36:44 10° N 23:42:44 81° ENE 23:45:55 30° SSE
Cosmos 1821 Rocket 4.2 23:36:48 10° NNW 23:42:57 58° W 23:45:54 30° SSW
Cosmos 2219 Rocket 4.0 23:39:40 10° NNW 23:44:35 29° NE 23:49:30 10° ESE
Cosmos 1340 Rocket 3.0 23:48:44 44° SSE 23:49:39 57° E 23:53:32 10° NNE
CZ-2D R/B 4.1 23:47:09 10° NE 23:50:35 17° E 23:53:35 11° SE
